Вернуться в каталог

CZ-6A DEB

АктивенPO
NORAD 60630·DEBRIS·🇨🇳 China

Запущен Aug 6, 2024 с Taiyuan Satellite Launch Center

Loading…

Ближайшие Пролёты (ближайшие 24 часа)

TLE

СвежийSource: Space-Track

Эпоха: Sep 14, 2026, 06:39 UTC

1 60630U 24140AF  26257.27713530  .00099610  00000-0  27871-2 0  9998
2 60630  88.2680 183.5834 0056489  95.0134 265.7570 15.34661782113937

Отслеживайте CZ-6A DEB в реальном времени с AllMySat

Download on the App Store